Location: Banff
(51.1667°N, 115.5667°W)
Time: 15:51:08
(UTC+00:00)

Altair - Pass Details

Date: 01 December 2020
Orbit: 1501 x 1682 km, 47.2° (Epoch: 15 January)

Event Time Altitude Azimuth Distance (km) Brightness Sun altitude
Rises 03:39:10 0° 223° (SW) 4,733 10.4 -36.7°
Reaches altitude 10° 03:42:26 10° 217° (SW) 3,728 9.7 -37.2°
Enters shadow 03:47:36 32° 194° (SSW) 2,378 8.4 -38.0°
